Terminal Aerodrome Forecast
Issued by NWS

Home | Current Version | Previous Version | Text Only | Print | Product List | Glossary On
Versions: 1 2 3 4 5 6 7 8 9 10 11 12 13 14 15 16
000
FTUS42 KTAE 010500
TAFDHN
TAF
KDHN 010538Z 0106/0206 33020G26KT P6SM SCT028 BKN035
     FM010800 32020G27KT P6SM SCT035
     FM011500 32022G30KT P6SM SKC
     FM020300 33010KT P6SM SKC=

USA.gov is the U.S. government's official web portal to all federal, state and local government web resources and services.